Regional Weather Roundup
Issued by NWS Sioux Falls, SD

Home | Current Version | Previous Version | Text Only | Print | Product List | Glossary On
Versions: 1 2 3 4 5 6 7 8 9 10 11 12 13 14 15 16 17 18 19 20 21 22 23 24 25 26 27 28 29 30 31 32 33 34 35 36 37 38 39 40 41 42 43 44 45 46 47 48 49 50
000
ASUS43 KFSD 251210
RWRFSD

WEATHER ROUNDUP FOR SE SOUTH DAKOTA/SW MINNESOTA/NW IOWA
NATIONAL WEATHER SERVICE SIOUX FALLS SD
700 AM CDT MON SEP 25 2017

NOTE: "FAIR" INDICATES FEW OR NO CLOUDS BELOW 12,000 FEET WITH NO
SIGNIFICANT WEATHER AND OR OBSTRUCTIONS TO VISIBILITY.


SDZ038>040-050-052>070-251300-
SOUTHEAST SOUTH DAKOTA

CITY           SKY/WX    TMP DP  RH WIND       PRES   REMARKS
BROOKINGS      LGT RAIN  49  48  97 N13       30.04F
CHAMBERLAIN    LGT RAIN  50  48  92 N12       30.10R
6HR MIN TEMP:  50; 6HR MAX TEMP:  53; 6HR PCP:  0.02;

HURON          CLOUDY    50  47  89 N13       30.08R
6HR MIN TEMP:  50; 6HR MAX TEMP:  52;

MADISON        LGT RAIN  48  48 100 N15       30.03F
MITCHELL       HVY RAIN  50  49  96 N10       30.05S FOG
6HR MIN TEMP:  50; 6HR MAX TEMP:  53; 6HR PCP:  0.15;

SIOUX FALLS    LGT RAIN  53  52  96 NE13      30.01F
6HR MIN TEMP:  53; 6HR MAX TEMP:  56; 6HR PCP:  0.45;

WINNER         LGT RAIN  50  48  93 N13       30.11S FOG
YANKTON        LGT RAIN  52  51  97 NW9       30.03R
$$

MNZ071-072-080-081-089-090-097-098-251300-
SOUTHWEST MINNESOTA

CITY           SKY/WX    TMP DP  RH WIND       PRES   REMARKS
FAIRMONT       CLOUDY    55  53  93 N10       30.02R
JACKSON        LGT RAIN  52  52 100 CALM      30.01S
LUVERNE        RAIN      52  48  87 N6        30.04R
MARSHALL       NOT AVBL
MONTEVIDEO     DRIZZLE   50  48  93 N8        30.05S
PIPESTONE      LGT RAIN  52  50  93 N10       30.03S
REDWOOD FALLS  LGT RAIN  53  50  89 N9        30.00S
TRACY          LGT RAIN  52  51  99 N13       30.02S
WINDOM         LGT RAIN  54  52  94 N8        30.03R
WORTHINGTON    LGT RAIN  52  51  97 N9        30.03R
$$

IAZ001>003-012>014-020>022-031-032-NEZ013-014-SDZ071-251300-
NORTHWEST IOWA

CITY           SKY/WX    TMP DP  RH WIND       PRES   REMARKS
CHEROKEE       TSTM      56  56 100 N9G16     29.99R
DENISON        CLOUDY    63  63 100 E6        29.95R
ESTHERVILLE    LGT RAIN  54  54 100 N10       30.00R
LE MARS        RAIN      55  55 100 N10       29.99F
ORANGE CITY    RAIN      55  55 100 NE9       30.00S
SHELDON        HVY RAIN  54  54 100 N8        30.02R
SIOUX CITY     LGT RAIN  56  56 100 N9        29.97S
6HR MIN TEMP:  56; 6HR MAX TEMP:  58; 6HR PCP:  1.03;

SPENCER        HVY RAIN  56  54  93 NE12      29.99F
6HR MIN TEMP:  56; 6HR MAX TEMP:  63; 6HR PCP:  0.32;

STORM LAKE     LGT RAIN  59  59 100 NE16      29.94F
$$

ABBREVIATIONS USED IN REMARKS
   TC - TEMPERATURE IN CELSIUS
  WCI - WIND CHILL INDEX
   HX - HEAT INDEX
  VSB - VISIBILITY





USA.gov is the U.S. government's official web portal to all federal, state and local government web resources and services.